Location: Unspecified
(47.7670°N, 8.8522°E)
Time: 00:32:51
(UTC+01:00)

BlueWalker 3 - Visible Passes

Search period start: 01 December 2023 00:00
Search period end: 11 December 2023 00:00
Orbit: 489 x 504 km, 53.2° (Epoch: 29 November)

Date Brightness Start Highest point End Pass type
(mag) Time Alt. Az. Time Alt. Az. Time Alt. Az.
01 Dec 2.5 05:24:08 54° NE 05:24:08 54° NE 05:27:28 10° ESE visible
01 Dec 2.9 06:58:42 11° WNW 07:01:55 33° SW 07:05:22 10° SSE visible
02 Dec 3.6 05:02:34 33° E 05:02:34 33° E 05:04:51 10° ESE visible
02 Dec 2.9 06:37:08 19° W 06:39:18 33° SW 06:42:46 10° SSE visible
03 Dec 4.6 04:41:03 19° E 04:41:03 19° E 04:42:13 10° ESE visible
03 Dec 2.8 06:15:37 28° WSW 06:16:41 34° SW 06:20:09 10° SSE visible
04 Dec 2.8 05:54:09 34° SW 05:54:09 34° SW 05:57:31 10° SSE visible
05 Dec 3.5 05:32:44 26° S 05:32:44 26° S 05:34:51 10° SSE visible
06 Dec 4.4 05:11:22 15° SSE 05:11:22 15° SSE 05:12:11 10° SSE visible
